Regional Weather Roundup
Issued by NWS

Home | Current Version | Previous Version | Graphics & Text | Print | Product List | Glossary On
Versions: 1 2 3 4 5 6 7 8 9 10 11 12 13 14 15 16 17 18 19 20 21 22 23 24 25 26 27
000
ASUS45 KBOI 280610
RWRID

IDAHO REGIONAL WEATHER ROUNDUP
NATIONAL WEATHER SERVICE BOISE ID
1200 AM MDT THU APR 28 2016

NOTE: "FAIR" INDICATES FEW OR NO CLOUDS BELOW 12000 FEET
WITH NO SIGNIFICANT WEATHER AND/OR OBSTRUCTIONS TO VISIBILITY

IDZ012-014-280700-
SOUTHWEST IDAHO


CITY           SKY/WX    TMP DP  RH WIND       PRES   REMARKS
BOISE          MOCLDY    51  40  65 NW10      29.79S
CALDWELL       MOCLDY    51  43  74 W9        29.81S
MOUNTAIN HOME  CLOUDY    50  38  62 NW12      29.77F
$$

IDZ016-017-280700-
SOUTHCENTRAL IDAHO


CITY           SKY/WX    TMP DP  RH WIND       PRES   REMARKS
BURLEY         CLOUDY    44  40  85 NW3       29.78S
JEROME         CLOUDY    44  41  89 SE6       29.79S
TWIN FALLS     CLOUDY    43  39  86 S12       29.78S
$$

IDZ019>023-280700-
SOUTHEAST IDAHO


CITY           SKY/WX    TMP DP  RH WIND       PRES   REMARKS
IDAHO FALLS    CLOUDY    40  27  59 N10       29.82S WCI  33
POCATELLO      CLOUDY    43  39  86 S9        29.81S
REXBURG        MOCLDY    40  27  59 NE9       29.83S WCI  34
$$

IDZ006-010-011-018-031-032-280700-
CENTRAL IDAHO MOUNTAINS


CITY           SKY/WX    TMP DP  RH WIND       PRES   REMARKS
MCCALL         MOCLDY    42  36  79 N10       29.84S
HAILEY         CLOUDY    45  36  70 N3        29.83S
STANLEY          N/A     36  33  89 CALM      29.87R
SALMON         CLOUDY    46  28  49 NE10      29.87R
CHALLIS        CLOUDY    45  30  55 NW5       29.84R
$$

IDZ002-004-006-007-026-280700-
NORTHERN IDAHO


CITY           SKY/WX    TMP DP  RH WIND       PRES   REMARKS
LEWISTON       CLOUDY    56  39  53 W7        29.90S
LOWELL           N/A     49  45  86 N6        29.91R
COEUR D`ALENE  CLOUDY    50  43  76 N5        29.89S
MULLAN PASS    CLEAR     35  29  78 CALM      29.93S
$$




USA.gov is the U.S. government's official web portal to all federal, state and local government web resources and services.